Regional Weather Roundup
Issued by NWS Grand Forks, ND

Home | Current Version | Previous Version | Text Only | Print | Product List | Glossary On
Versions: 1 2 3 4 5 6 7 8 9 10 11 12 13 14 15 16 17 18 19 20 21 22 23 24 25 26 27 28 29 30 31 32 33 34 35 36 37 38 39 40 41 42 43 44 45 46 47 48 49 50
000
ASUS43 KFGF 290631
RWRFGF
PRAIRIE TO PINES  WEATHER ROUNDUP
NATIONAL WEATHER SERVICE EASTERN NORTH DAKOTA/GRAND FORKS ND
100 AM CDT THU SEP 29 2016

 **SATELLITE DATA USED TO AUGMENT SKY COVER AT AUTOMATED STATIONS**
 *****  WEATHER ACROSS EASTERN NORTH DAKOTA  *****

CITY           SKY/WX    TMP DP  RH WIND       PRES   REMARKS
GRAND FORKS    CLEAR     43  41  93 CALM      30.42S
6HR MIN TEMP:  43; 6HR MAX TEMP:  58;

GRAND FRKS AFB CLEAR     42  41  97 SW2       30.42R
GRAND FRKS NWS   N/A     43 N/A N/A MISG        N/A
DEVILS LAKE    CLEAR     50  47  89 SE7       30.42R
6HR MIN TEMP:  49; 6HR MAX TEMP:  58;

FARGO          CLEAR     46  43  89 E3        30.42R
WAHPETON ARPT  CLEAR     46  43  87 SE5       30.42R
$$

 ***** WEATHER ACROSS CENTRAL AND WESTERN NORTH DAKOTA  *****

CITY           SKY/WX    TMP DP  RH WIND       PRES   REMARKS
BISMARCK       CLEAR     43  42  97 E7        30.38S
6HR MIN TEMP:  43; 6HR MAX TEMP:  62;

MINOT          CLEAR     45  44  97 SE6       30.35S
6HR MIN TEMP:  45; 6HR MAX TEMP:  63;

JAMESTOWN      CLEAR     42  40  92 CALM      30.41R
6HR MIN TEMP:  41; 6HR MAX TEMP:  58;

MINOT AFB      CLEAR     43  42  96 SE7       30.34S
GARRISON         N/A     48  47  96 S5        30.35S
WILLISTON      CLEAR     59  38  45 SE5       30.28S
6HR MIN TEMP:  59; 6HR MAX TEMP:  73;

DICKINSON      CLEAR     47  37  68 SE12      30.31F
6HR MIN TEMP:  47; 6HR MAX TEMP:  68;

HETTINGER      CLEAR     50  41  71 S8        30.35F
6HR MIN TEMP:  50; 6HR MAX TEMP:  71;

$$

 *****  OTHER AIRPORT OBSERVATIONS IN OUR AREA  *****

CITY           SKY/WX    TMP DP  RH WIND       PRES   REMARKS
WALHALLA       FAIR      41  41 100 CALM      30.43R
GRAFTON AIRPOR FAIR      45  45 100 CALM      30.44S
VALLEY CITY AR FAIR      46  46 100 E6        30.43S
CANDO          FAIR      41  41 100 SE6       30.43S
CAVALIER APRT  FAIR      43  43 100 CALM      30.43R
GWINNER        FAIR      43  43 100 N3        30.42R
ROLLA          FAIR      45  45 100 S7        30.41S FOG
 ***** THE ABOVE OBSERVATIONS ARE NON NWS ARE NOT QUALITY
       CONTROLLED AND MAY MIS-REPORT RAIN FOR SNOW...
$$

  *****  WEATHER ACROSS NORTHERN MINNESOTA  *****

CITY           SKY/WX    TMP DP  RH WIND       PRES   REMARKS
FLAG ISLAND    CLOUDY    57  50  77 S6        30.43S
WARROAD        CLOUDY    48  45  87 CALM      30.44S
ROSEAU         MOCLDY    45  39  81 CALM      30.44S
HALLOCK        CLEAR     45  45 100 E6        30.43R
THF RVR FALLS  CLEAR     48  45  89 SE5       30.44S
6HR MIN TEMP:  46; 6HR MAX TEMP:  57;

BAUDETTE       CLOUDY    48  46  93 CALM      30.44R
6HR MIN TEMP:  48; 6HR MAX TEMP:  55;

WASKISH        CLOUDY    48  46  93 CALM      30.44R
CROOKSTON      CLEAR     48  45  87 SE3       30.43S
STEPHEN NDAWN    N/A     45  45 100 SE3         N/A
GREENBUSH NDAW   N/A     43  41  93 E1          N/A
$$
  *****  WEATHER ACROSS CENTRAL AND WEST MINNESOTA  *****

CITY           SKY/WX    TMP DP  RH WIND       PRES   REMARKS
FOSSTON        CLEAR     43  41  93 CALM      30.44S
BEMIDJI        CLOUDY    47  46  94 CALM      30.43R
PARK RAPIDS    CLOUDY    56  42  59 SE5       30.42S
6HR MIN TEMP:  55; 6HR MAX TEMP:  58;

ELBOW LAKE     MOCLDY    49  46  87 CALM      30.43R
WADENA         CLOUDY    52  46  82 CALM      30.42S
DETROIT LAKES  CLEAR     50  45  81 CALM      30.43S
MOORHEAD       CLEAR     46  45  93 E3        30.43R
FERGUS FALLS   CLEAR     46  43  87 E5        30.44S
MORRIS MN      CLEAR     48  45  87 E3        30.41R
STAPLES        CLOUDY    52  46  82 CALM      30.42S
$$
  *****  WEATHER ELSEWHERE ACROSS MINNESOTA  *****

CITY           SKY/WX    TMP DP  RH WIND       PRES   REMARKS
DULUTH         CLOUDY    52  50  93 CALM      30.40S
6HR MIN TEMP:  51; 6HR MAX TEMP:  55;

INTRNTL FALLS  CLOUDY    53  49  86 SE3       30.44R
6HR MIN TEMP:  53; 6HR MAX TEMP:  56;

ELY            CLOUDY    52  50  93 CALM      30.42S
CLOQUET        CLOUDY    52  48  87 CALM      30.41S
WHEATON        CLOUDY    45  43  93 SE3       30.44R FOG
BRAINERD       CLOUDY    53  50  89 CALM      30.42R
6HR MIN TEMP:  52; 6HR MAX TEMP:  56;

HIBBING        CLOUDY    51  49  92 NW3       30.42S
6HR MIN TEMP:  50; 6HR MAX TEMP:  55;

ALEXANDRIA     CLEAR     48  44  86 NE5       30.43S
6HR MIN TEMP:  48; 6HR MAX TEMP:  59;

SAINT CLOUD    CLEAR     50  48  93 N3        30.40R
6HR MIN TEMP:  49; 6HR MAX TEMP:  57;

MINNEAPOLIS    CLEAR     52  47  83 NE7       30.37S
6HR MIN TEMP:  52; 6HR MAX TEMP:  59;

$$

  *****  WEATHER ACROSS SOUTH DAKOTA  *****

CITY           SKY/WX    TMP DP  RH WIND       PRES   REMARKS
SIOUX FALLS    CLEAR     45  43  93 CALM      30.40R
6HR MIN TEMP:  45; 6HR MAX TEMP:  58;

BROOKINGS      CLOUDY    41  40  96 CALM      30.40R
WATERTOWN      CLOUDY    43  41  93 CALM      30.41R
6HR MIN TEMP:  41; 6HR MAX TEMP:  55;

HURON          CLOUDY    45  43  93 CALM      30.40R
6HR MIN TEMP:  44; 6HR MAX TEMP:  63;

SISSETON         N/A     41  38  89 SW3       30.40S
ABERDEEN       CLOUDY    43  40  89 NE5       30.40S
6HR MIN TEMP:  43; 6HR MAX TEMP:  60;

MITCHELL       CLOUDY    45  42  89 CALM      30.40R
PIERRE         CLEAR     44  39  82 E7        30.36S
6HR MIN TEMP:  44; 6HR MAX TEMP:  65;

MOBRIDGE       CLEAR     48  40  73 E8        30.36S
RAPID CITY     CLEAR     49  38  65 S6        30.35F
6HR MIN TEMP:  48; 6HR MAX TEMP:  73;

$$

  *****  SOME WEATHER IN NEARBY STATES *****

CITY           SKY/WX    TMP DP  RH WIND       PRES   REMARKS
GLASGOW MT     CLEAR     57  51  80 E10       30.15F
6HR MIN TEMP:  57; 6HR MAX TEMP:  70;

GREAT FALLS MT CLEAR     46  43  89 SW8       30.15F
6HR MIN TEMP:  45; 6HR MAX TEMP:  67;

CHEYENNE WY    CLEAR     54  35  48 S9        30.44R
6HR MIN TEMP:  54; 6HR MAX TEMP:  72;

SCOTTSBLUFF NE CLEAR     54  43  66 E10       30.35R
6HR MIN TEMP:  54; 6HR MAX TEMP:  77;

OMAHA NE       CLEAR     47  43  86 N6        30.35R
6HR MIN TEMP:  47; 6HR MAX TEMP:  61;

DES MOINES IA  CLEAR     55  50  83 N9        30.29S
6HR MIN TEMP:  55; 6HR MAX TEMP:  61;

DAVENPORT IA   CLEAR     50  48  93 N8        30.22R
6HR MIN TEMP:  50; 6HR MAX TEMP:  56;

CHICAGO IL     CLOUDY    60  55  83 N13       30.07S
6HR MIN TEMP:  54; 6HR MAX TEMP:  60; 6HR PCP:  0.18;

EAU CLAIRE WI  CLEAR     52  50  93 N6        30.35R
6HR MIN TEMP:  51; 6HR MAX TEMP:  59;

LA CROSSE WI   CLEAR     56  53  90 N7        30.31R
6HR MIN TEMP:  55; 6HR MAX TEMP:  61;

$$

  *****  SOME NATIONAL WEATHER *****

CITY           SKY/WX    TMP DP  RH WIND       PRES   REMARKS
LA GUARDIA NY  CLOUDY    61  57  87 NE24G32   30.25S
6HR MIN TEMP:  60; 6HR MAX TEMP:  64; 6HR PCP: TRACE;

RALEIGH NC     TSTM      65  64  97 CALM      30.03R
6HR MIN TEMP:  65; 6HR MAX TEMP:  72; 6HR PCP:  0.49;

ATLANTA GA     CLEAR     67  46  47 SW3       29.94F
6HR MIN TEMP:  67; 6HR MAX TEMP:  80;

NEW ORLEANS LA PTCLDY    78  70  76 W3        29.99F
6HR MIN TEMP:  78; 6HR MAX TEMP:  86;

OKLAHOMA CITY  PTCLDY    62  47  57 NE14      30.25R
6HR MIN TEMP:  62; 6HR MAX TEMP:  79;

ALBUQUERQUE NM CLOUDY    68  32  26 E10       30.33R
6HR MIN TEMP:  68; 6HR MAX TEMP:  79;

SALT LAKE CITY MOCLDY    65  54  67 W5        30.21R
6HR MIN TEMP:  64; 6HR MAX TEMP:  80; 6HR PCP: TRACE;

LOS ANGELES CA PTCLDY    72  64  76 W8        29.95R
6HR MIN TEMP:  72; 6HR MAX TEMP:  80;

BOISE ID       CLEAR    C1F1C2F2C3F3C4F4C5F5C6F6C7F7C8F8C9F9CaFaCbFbCcFcCd!



USA.gov is the U.S. government's official web portal to all federal, state and local government web resources and services.